Location: Congrier
(47.8099°N, 1.1170°W)
Time: 16:36:45
(UTC+00:00)

NOSS 3-3 (C) - Pass Details

Date: 09 August 2024
Orbit: 733 x 1482 km, 63.4° (Epoch: 18 September)

Event Time Altitude Azimuth Distance (km) Brightness Sun altitude
Rises 03:19:43 0° 165° (SSE) 3,203 6.4 -13.7°
Reaches altitude 10° 03:22:52 10° 144° (SE) 2,353 6.0 -13.3°
Maximum altitude 03:26:05 16° 106° (ESE) 2,044 6.1 -12.9°
Drops below altitude 10° 03:29:33 10° 70° (ENE) 2,576 7.4 -12.5°
Sets 03:33:13 0° 50° (NE) 3,670 9.2 -12.0°
